EDW76 HTKJ-HTZA

Flight info

Callsign EDW76
Flight time N/A
Altitude 33000
Route OKNES2D OKNES DCT ASOLE DCT EPTEL DCT DUNDO DCT EGPET DCT NEVAB DCT GADBU
Aircraft A343/H-SDE2E3FGHIJ4J5M1RWXY/LB1D1

Departure

Time N/A
Airport Kilimanjaro International Airport (HTKJ)

Arrival

Time 2026-04-15 20:51
Airport Abeid Amani Karume International Airport (HTZA)
Time Latitude Longitude Altitude Speed Heading
2026-04-15 20:26 -4.27173 38.43389 32966 ft 445 kts 150°
2026-04-15 20:27 -4.29811 38.45001 32963 ft 445 kts 150°
2026-04-15 20:27 -4.35097 38.48234 32960 ft 445 kts 150°
2026-04-15 20:28 -4.40378 38.51465 32960 ft 445 kts 150°
2026-04-15 20:28 -4.45666 38.54700 32966 ft 445 kts 150°
2026-04-15 20:29 -4.50947 38.57932 32968 ft 444 kts 150°
2026-04-15 20:29 -4.56211 38.61155 32974 ft 443 kts 150°
2026-04-15 20:30 -4.61440 38.64356 32973 ft 443 kts 150°
2026-04-15 20:30 -4.66700 38.67577 32968 ft 443 kts 150°
2026-04-15 20:31 -4.71952 38.70794 32970 ft 442 kts 150°
2026-04-15 20:31 -4.77204 38.74011 32971 ft 442 kts 150°
2026-04-15 20:32 -4.82454 38.77199 32958 ft 441 kts 151°
2026-04-15 20:32 -4.87746 38.80305 32962 ft 440 kts 152°
2026-04-15 20:33 -4.93039 38.83404 32963 ft 441 kts 151°
2026-04-15 20:33 -4.95673 38.84953 32780 ft 436 kts 151°
2026-04-15 20:33 -4.98296 38.86500 31999 ft 440 kts 151°
2026-04-15 20:33 -5.00959 38.88071 31138 ft 448 kts 151°
2026-04-15 20:34 -5.03658 38.89665 30316 ft 453 kts 151°
2026-04-15 20:34 -5.06385 38.91277 29511 ft 456 kts 151°
2026-04-15 20:34 -5.09120 38.92894 28703 ft 458 kts 150°
2026-04-15 20:34 -5.11867 38.94518 27932 ft 458 kts 150°
2026-04-15 20:35 -5.14603 38.96137 27243 ft 456 kts 150°
2026-04-15 20:35 -5.17322 38.97746 26476 ft 449 kts 150°
2026-04-15 20:35 -5.19969 38.99312 25180 ft 436 kts 149°
2026-04-15 20:35 -5.22564 39.00847 23665 ft 430 kts 149°
2026-04-15 20:36 -5.25121 39.02358 21919 ft 423 kts 149°
2026-04-15 20:36 -5.27637 39.03846 20251 ft 416 kts 148°
2026-04-15 20:36 -5.30111 39.05309 18732 ft 409 kts 148°
2026-04-15 20:36 -5.32545 39.06749 17130 ft 401 kts 148°
2026-04-15 20:37 -5.34904 39.08145 16006 ft 387 kts 148°
2026-04-15 20:37 -5.37171 39.09486 15663 ft 372 kts 148°
2026-04-15 20:37 -5.39375 39.10791 15415 ft 364 kts 148°
2026-04-15 20:37 -5.41542 39.12073 15018 ft 360 kts 148°
2026-04-15 20:38 -5.43692 39.13345 14550 ft 358 kts 148°
2026-04-15 20:38 -5.45832 39.14612 14122 ft 356 kts 148°
2026-04-15 20:38 -5.47932 39.15859 13672 ft 355 kts 148°
2026-04-15 20:38 -5.50051 39.17116 13196 ft 353 kts 148°
2026-04-15 20:39 -5.52157 39.18362 12752 ft 350 kts 148°
2026-04-15 20:39 -5.54247 39.19598 12298 ft 347 kts 148°
2026-04-15 20:39 -5.56318 39.20825 11879 ft 344 kts 148°
2026-04-15 20:39 -5.58369 39.22042 11456 ft 341 kts 148°
2026-04-15 20:40 -5.60407 39.23248 11023 ft 339 kts 148°
2026-04-15 20:40 -5.62426 39.24446 10583 ft 336 kts 148°
2026-04-15 20:40 -5.64428 39.25633 10284 ft 330 kts 148°
2026-04-15 20:40 -5.66369 39.26782 10182 ft 318 kts 148°
2026-04-15 20:41 -5.68239 39.27888 10059 ft 307 kts 148°
2026-04-15 20:41 -5.70053 39.28962 9937 ft 298 kts 148°
2026-04-15 20:41 -5.71817 39.30002 9717 ft 292 kts 148°
2026-04-15 20:41 -5.73568 39.31028 9372 ft 290 kts 148°
2026-04-15 20:42 -5.75303 39.32053 9064 ft 288 kts 148°
2026-04-15 20:42 -5.77025 39.33077 8725 ft 287 kts 148°
2026-04-15 20:42 -5.78735 39.34096 8395 ft 285 kts 148°
2026-04-15 20:42 -5.80435 39.35107 8058 ft 284 kts 149°
2026-04-15 20:43 -5.82136 39.36115 7709 ft 283 kts 149°
2026-04-15 20:43 -5.83829 39.37119 7367 ft 282 kts 149°
2026-04-15 20:43 -5.85533 39.38081 7014 ft 281 kts 155°
2026-04-15 20:43 -5.87407 39.38578 6714 ft 279 kts 175°
2026-04-15 20:44 -5.89309 39.38304 6427 ft 277 kts 198°
2026-04-15 20:44 -5.91070 39.37530 6095 ft 276 kts 206°
2026-04-15 20:44 -5.92731 39.36564 5743 ft 275 kts 211°
2026-04-15 20:44 -5.94326 39.35516 5428 ft 273 kts 213°
2026-04-15 20:45 -5.95892 39.34448 5143 ft 269 kts 213°
2026-04-15 20:45 -5.97432 39.33402 4856 ft 266 kts 212°
2026-04-15 20:45 -5.98961 39.32385 4519 ft 263 kts 212°
2026-04-15 20:45 -6.00442 39.31311 3963 ft 262 kts 221°
2026-04-15 20:46 -6.01520 39.29890 3411 ft 259 kts 242°
2026-04-15 20:46 -6.02072 39.28202 3006 ft 250 kts 254°
2026-04-15 20:46 -6.02373 39.26499 2674 ft 248 kts 259°
2026-04-15 20:46 -6.02553 39.24796 2397 ft 238 kts 261°
2026-04-15 20:47 -6.02672 39.23180 2135 ft 229 kts 262°
2026-04-15 20:47 -6.03183 39.21753 2008 ft 209 kts 224°
2026-04-15 20:47 -6.04403 39.21060 2023 ft 204 kts 194°
2026-04-15 20:47 -6.05799 39.20861 2014 ft 202 kts 177°
2026-04-15 20:48 -6.07194 39.20985 2005 ft 203 kts 173°
2026-04-15 20:48 -6.08599 39.21134 2002 ft 203 kts 173°
2026-04-15 20:48 -6.09992 39.21272 1995 ft 195 kts 174°
2026-04-15 20:48 -6.11250 39.21391 1986 ft 170 kts 175°
2026-04-15 20:49 -6.12387 39.21499 1739 ft 159 kts 173°
2026-04-15 20:49 -6.13443 39.21606 1500 ft 146 kts 173°
2026-04-15 20:49 -6.14415 39.21706 1279 ft 136 kts 173°
2026-04-15 20:49 -6.15332 39.21798 1049 ft 128 kts 176°
2026-04-15 20:50 -6.16215 39.21895 940 ft 132 kts 174°
2026-04-15 20:50 -6.17120 39.21975 798 ft 129 kts 173°
2026-04-15 20:50 -6.18014 39.22057 670 ft 129 kts 173°
2026-04-15 20:50 -6.18901 39.22156 467 ft 126 kts 172°
2026-04-15 20:51 -6.19779 39.22246 333 ft 127 kts 173°
2026-04-15 20:51 -6.20660 39.22336 205 ft 128 kts 172°
2026-04-15 20:51 -6.21532 39.22424 63 ft 117 kts 174°
2026-04-15 20:51 -6.22171 39.22489 54 ft 49 kts 174°
2026-04-15 20:52 -6.22292 39.22461 55 ft 13 kts 244°
2026-04-15 20:52 -6.22303 39.22381 57 ft 10 kts 263°
2026-04-15 20:52 -6.22292 39.22335 53 ft 5 kts 321°
2026-04-15 20:52 -6.22252 39.22324 54 ft 7 kts 353°
2026-04-15 20:53 -6.22195 39.22318 55 ft 8 kts 349°
2026-04-15 20:53 -6.22178 39.22295 56 ft 3 kts 290°
2026-04-15 20:53 -6.22175 39.22269 59 ft 4 kts 271°
2026-04-15 20:53 -6.22176 39.22253 61 ft 0 kts 266°